Wind_Speed
33 34 35 35 35 36 36 31 36 38 41 37 36 36 33 35 32 35 31 25 23 25 25 20 15 6 14 22 19 18 17 16 15 16 16 18 21 24 25 26 28 28 28 27 29 31 32 32 31
35 35 34 35 36 37 36 36 36 37 43 43 39 42 38 36 34 36 38 33 27 26 27 26 19 18 16 17 18 18 20 17 17 17 17 20 19 20 24 27 30 30 30 29 31 31 31 31 30
34 36 37 36 35 35 37 37 37 37 41 45 44 48 39 39 40 40 32 34 31 32 30 31 29 23 23 25 20 17 19 18 16 18 20 23 22 21 21 22 23 26 31 31 31 32 31 30 29
34 36 37 36 34 35 39 39 40 39 42 46 48 51 49 41 41 42 38 35 33 33 36 33 32 31 26 22 23 21 22 18 21 24 23 23 25 31 32 33 32 33 31 30 29 29 28 29 27
33 35 37 37 34 33 38 40 41 43 43 47 49 54 54 47 46 47 43 39 34 36 39 36 35 30 31 30 28 27 26 25 27 27 24 25 30 31 32 35 36 37 40 41 39 34 34 34 33
34 36 38 38 34 35 36 40 41 43 44 46 51 55 57 56 52 51 50 49 43 39 42 44 42 38 33 34 32 34 31 34 32 29 26 24 26 31 33 38 40 41 42 42 40 40 38 38 37
38 39 39 36 36 37 38 39 41 43 44 44 50 53 58 61 60 59 57 55 57 50 44 42 44 42 39 38 38 35 35 33 33 32 31 31 32 34 39 40 39 38 42 43 42 43 45 42 43
40 42 41 37 36 35 37 38 40 43 46 47 49 53 55 57 61 63 61 59 58 57 57 51 50 43 43 45 40 43 42 38 38 38 41 41 37 37 40 43 46 46 48 45 46 47 48 49 54
39 44 44 40 36 35 36 41 45 47 49 50 50 53 52 53 59 62 65 63 61 60 62 61 58 58 47 44 44 44 41 38 38 40 41 40 39 40 45 44 49 50 51 52 51 49 48 50 48
37 39 42 43 42 42 43 45 46 48 51 50 53 53 52 54 56 59 62 61 59 60 62 64 64 61 59 54 50 44 45 42 43 42 44 44 45 44 39 39 45 54 56 58 56 54 51 49 50
36 36 39 42 46 49 49 49 49 49 51 51 52 53 53 55 56 57 58 60 59 59 59 62 65 66 65 64 60 60 59 55 56 53 53 53 52 51 44 44 43 46 52 57 61 61 57 58 56
39 37 37 38 44 48 52 52 51 52 53 54 55 55 53 54 54 57 57 59 60 60 60 61 62 66 67 68 67 65 64 63 61 60 62 60 64 58 50 50 51 56 56 58 60 59 59 61 61
41 41 41 40 42 44 48 52 53 55 57 58 56 56 55 55 55 58 60 59 59 59 60 62 62 62 62 65 64 65 63 66 64 62 60 61 61 62 56 55 59 62 64 65 64 63 61 60 62
45 44 44 45 45 44 44 46 50 52 56 60 61 62 62 59 59 61 61 61 60 59 59 59 61 61 60 61 63 63 63 60 60 61 61 60 61 62 63 62 64 65 67 67 65 63 63 61 62
48 49 48 48 46 48 47 46 48 50 53 56 61 62 66 65 64 65 65 64 63 63 61 62 61 62 63 61 58 59 61 61 61 62 63 64 65 66 68 68 66 68 65 66 64 63 62 59 54
47 51 52 51 49 47 48 53 54 51 50 54 57 59 65 68 67 66 68 69 67 66 64 64 63 63 64 64 63 61 60 61 62 64 65 66 67 67 66 65 65 66 65 63 60 57 54 51 51
45 48 52 55 54 53 54 55 58 56 55 55 57 57 59 63 67 67 68 70 69 68 67 66 67 66 66 67 68 67 66 65 63 64 65 64 64 64 63 63 62 61 58 57 55 52 50 51 52
46 47 48 53 54 56 57 59 60 59 58 59 58 57 58 60 60 61 63 65 67 68 68 68 68 69 69 68 68 67 67 67 66 67 67 66 65 62 61 59 58 57 55 55 54 54 52 53 54
49 49 51 55 54 54 56 60 62 63 63 61 60 61 62 63 63 61 62 63 63 65 67 65 64 65 66 67 67 68 68 66 63 63 64 63 61 59 57 56 55 54 54 56 56 55 56 58 59
52 52 55 58 58 57 58 59 59 63 67 67 64 63 64 66 66 66 65 65 65 65 65 65 63 62 63 64 63 64 64 63 62 60 60 60 59 58 57 56 58 58 60 61 61 61 60 55 59
53 54 56 58 60 59 61 65 63 63 65 68 69 69 68 70 70 69 67 68 69 70 69 68 68 68 66 64 63 63 64 63 61 60 59 60 58 60 61 61 61 62 63 65 65 65 59 56 62
47 52 53 56 60 64 63 67 65 64 63 64 68 69 71 72 73 73 71 71 71 73 74 74 75 73 71 70 68 67 66 66 65 64 63 64 63 65 65 66 66 67 68 67 67 67 65 65 64
43 45 48 52 56 58 63 66 68 68 66 67 68 66 66 69 72 74 75 75 76 77 77 77 78 78 77 76 75 74 71 71 70 69 68 70 70 69 69 70 71 71 71 71 71 70 68 67 66
42 45 47 47 48 53 59 66 66 66 69 71 71 65 62 61 62 68 71 73 78 79 80 80 81 80 80 81 81 80 79 77 76 75 75 75 77 76 75 75 75 75 75 75 74 71 69 67 66
50 47 46 45 47 48 57 62 66 68 70 72 71 67 65 61 62 65 69 73 78 77 78 80 81 83 84 83 83 83 84 83 82 81 81 81 82 82 80 79 79 78 77 76 74 71 68 67 67
59 57 55 50 48 49 47 54 60 68 72 73 73 70 69 65 63 61 63 67 71 77 82 83 82 82 83 84 85 85 86 84 83 83 84 84 84 84 81 79 78 77 76 75 72 70 69 69 67
67 64 62 58 53 52 50 48 55 65 74 76 73 70 69 66 63 61 64 66 68 71 75 81 83 85 85 85 85 86 88 86 85 84 85 84 82 84 85 82 80 77 76 75 75 74 72 71 70
72 70 68 64 61 57 54 55 57 64 71 77 77 73 72 70 66 65 64 66 68 70 70 72 76 79 82 84 85 85 85 83 82 83 85 84 84 84 82 80 78 77 75 74 72 70 69 69 69
79 75 75 69 64 62 58 58 61 57 66 77 76 75 75 74 71 68 66 66 68 69 70 72 74 76 77 77 79 82 84 83 82 81 81 81 80 81 80 76 75 74 73 72 69 65 61 62 59
82 80 78 75 70 67 62 59 61 55 51 67 72 74 74 73 69 68 69 70 69 71 73 73 75 75 76 76 76 75 76 78 79 81 81 81 80 80 77 78 75 73 68 61 62 59 57 58 56
Wind_Direction
240 238 232 229 222 222 221 218 211 212 211 216 216 192 203 202 200 198 193 194 214 219 227 241 248 234 225 201 213 227 220 226 236 251 252 259 260 257 261 267 266 267 269 273 277 281 287 291 294
239 240 238 234 228 225 223 226 221 214 216 214 220 220 205 208 216 206 209 211 216 224 229 243 240 229 239 228 252 262 233 236 243 248 259 265 262 265 266 268 268 268 268 269 273 279 285 288 290
237 239 240 237 230 228 232 227 227 223 220 218 218 218 208 214 220 220 219 215 221 231 233 240 244 236 241 239 247 259 270 278 254 265 267 265 267 264 270 278 284 277 270 270 276 279 280 283 284
241 239 239 237 230 231 231 232 229 229 224 225 221 222 219 210 215 215 214 221 233 237 235 241 248 250 243 243 234 255 247 261 276 275 288 293 288 270 277 280 283 283 280 277 275 275 276 282 287
241 242 239 235 231 233 233 232 232 231 231 231 228 222 227 216 208 210 218 223 227 236 238 244 245 242 244 247 249 248 250 247 258 265 277 292 286 281 280 281 284 281 282 282 280 274 277 285 285
244 244 241 239 234 234 232 233 233 234 233 235 234 231 227 227 219 217 221 224 230 230 239 244 243 243 243 246 248 254 248 252 253 255 262 273 278 292 290 293 284 283 285 284 284 287 284 286 288
246 245 245 239 235 234 233 232 234 235 235 235 236 236 233 232 232 235 238 242 245 238 233 238 242 242 244 247 251 246 254 252 255 264 265 263 263 272 276 279 285 283 283 283 284 285 285 282 285
247 247 245 242 239 234 237 235 235 236 237 236 236 238 239 236 236 234 239 243 247 245 245 235 238 244 244 247 258 257 252 251 252 260 263 265 264 267 270 276 277 280 287 293 289 285 287 285 285
249 248 247 243 243 238 235 236 235 236 236 237 239 238 239 241 242 237 238 244 247 247 250 251 247 250 244 246 256 260 250 248 255 259 263 268 269 268 270 272 272 273 279 288 288 289 293 292 292
253 252 250 246 241 238 234 235 236 238 239 238 242 241 243 243 242 245 245 244 246 248 248 250 253 256 257 256 255 251 248 253 258 264 261 263 268 266 272 277 274 270 274 278 284 286 290 294 295
256 254 252 247 242 238 237 239 240 241 242 242 242 242 242 246 247 246 248 250 250 249 251 252 250 254 257 260 260 262 258 255 260 264 266 260 265 267 267 276 284 280 275 278 284 286 294 295 297
261 258 257 253 248 242 240 238 242 246 246 247 246 244 246 245 245 249 249 251 252 253 252 252 254 254 254 257 259 260 260 264 266 266 267 266 266 267 266 271 282 287 284 281 280 284 293 293 295
261 260 257 254 253 249 243 241 242 242 246 248 250 250 251 253 248 246 248 248 250 251 253 254 254 255 256 257 258 259 262 262 262 262 263 267 265 260 267 270 282 286 284 282 281 287 293 291 294
265 260 258 255 254 252 249 246 245 243 244 247 249 251 251 251 252 251 250 250 251 251 252 253 254 257 257 257 258 259 261 262 261 261 264 264 262 264 268 273 280 282 280 277 281 287 290 290 291
266 265 261 257 257 258 253 249 248 245 243 244 247 250 251 252 252 253 253 252 253 254 253 253 254 255 257 257 256 257 259 259 260 259 263 260 260 267 268 275 279 281 281 284 285 286 287 287 287
265 264 262 261 259 256 258 258 250 245 246 246 247 247 251 252 251 251 254 254 255 255 255 256 255 256 257 258 260 260 259 260 260 260 263 265 267 271 273 275 277 279 281 283 285 285 284 285 285
262 263 263 261 259 259 256 255 255 251 246 243 246 249 250 253 255 254 254 256 257 259 260 260 260 259 257 258 259 260 261 262 262 264 265 266 268 270 272 274 276 277 279 279 279 278 280 283 286
261 260 261 261 259 258 256 257 256 255 253 251 249 246 250 254 257 257 257 256 257 257 258 259 260 261 262 261 262 262 262 264 264 265 267 268 270 272 272 273 274 274 274 273 275 277 278 280 282
269 267 267 263 257 256 256 257 256 256 255 251 250 252 251 249 251 254 258 261 259 257 259 259 259 261 262 262 263 264 264 263 264 265 267 269 270 269 268 269 269 270 270 271 273 275 279 283 285
270 269 269 268 267 264 259 256 256 254 255 253 251 250 252 253 252 250 250 255 260 261 261 261 260 258 259 260 260 261 263 265 264 263 265 265 265 266 266 266 267 269 270 272 275 279 283 285 287
267 265 265 266 268 267 269 267 262 256 255 255 254 250 248 251 252 252 251 252 253 257 259 260 261 259 258 259 259 260 262 263 263 263 262 262 263 263 264 265 267 270 273 275 280 284 287 285 291
269 265 264 264 263 264 265 266 268 266 262 260 255 252 250 250 251 252 251 251 251 252 254 257 258 259 260 261 263 262 262 263 262 263 263 263 263 265 267 269 272 274 277 280 282 284 285 286 288
270 268 266 266 264 265 263 262 263 264 264 261 259 256 256 255 253 253 253 251 250 250 252 253 254 256 258 260 260 261 261 262 263 263 264 264 265 265 267 270 272 275 278 278 280 281 283 285 285
273 269 272 273 276 269 268 261 258 259 260 262 263 262 259 256 255 254 254 255 254 252 251 252 253 255 255 255 256 257 258 259 261 262 263 265 267 268 270 272 274 275 276 277 278 280 281 282 283
270 271 273 277 279 284 267 263 262 258 258 263 266 266 264 261 258 253 254 255 254 253 254 255 254 254 255 254 254 255 256 256 258 260 261 263 266 268 269 270 271 272 273 275 277 279 280 280 281
267 270 271 275 280 280 284 271 264 259 259 258 261 264 265 264 264 262 258 256 257 258 256 252 253 255 255 255 257 258 258 259 258 259 260 262 264 267 269 270 271 272 274 276 278 279 279 280 281
265 267 269 272 276 279 279 283 265 266 257 257 258 260 261 260 259 262 263 261 260 258 258 257 257 257 256 257 258 258 259 260 261 263 263 265 267 269 271 271 273 274 274 276 278 280 281 280 281
264 265 268 270 273 278 281 284 278 270 258 252 253 255 257 258 259 261 262 263 264 265 264 264 263 261 261 260 260 261 261 261 262 263 264 264 264 265 269 272 273 274 275 276 277 277 278 278 278
260 262 264 266 271 274 278 282 287 287 255 243 245 249 251 253 258 261 264 265 265 264 263 263 264 264 263 263 264 263 262 261 261 261 262 264 264 265 266 269 271 273 273 273 274 275 276 276 276
259 262 263 265 267 270 275 279 285 291 268 239 240 245 249 253 256 262 265 265 265 266 265 263 263 263 264 264 263 264 265 265 265 265 265 265 266 266 266 266 268 270 271 271 271 271 273 276 277
Height
10939 10941 10946 10950 10956 10960 10966 10969 10973 10975 10977 10979 10980 10981 10981 10984 10984 10986 10988 10989 10992 10995 10997 10997 10999 11000 11002 11002 11005 11006 11007 11009 11011 11012 11013 11013 11013 11013 11013 11014 11014 11013 11013 11012 11010 11008 11007 11006 11005
10934 10937 10941 10947 10952 10956 10961 10964 10968 10971 10972 10973 10974 10975 10977 10981 10981 10984 10985 10987 10988 10990 10992 10994 10995 10997 10999 11000 11001 11002 11003 11005 11007 11008 11010 11011 11010 11010 11010 11010 11009 11009 11008 11008 11006 11005 11004 11003 11001
10929 10932 10936 10941 10948 10954 10955 10959 10962 10965 10967 10967 10969 10970 10973 10976 10977 10978 10981 10983 10986 10987 10988 10989 10991 10993 10995 10996 10996 10997 10999 11000 11001 11004 11007 11009 11009 11008 11007 11007 11006 11005 11005 11004 11003 11001 11000 10998 10997
10924 10927 10930 10935 10942 10947 10948 10953 10957 10959 10960 10960 10961 10963 10966 10970 10971 10973 10975 10979 10981 10984 10984 10986 10988 10991 10991 10991 10992 10993 10994 10996 10997 10999 10999 11001 11003 11004 11004 11003 11003 11002 11002 11001 11000 10998 10996 10995 10994
10919 10921 10924 10928 10937 10941 10942 10946 10950 10953 10954 10952 10954 10957 10960 10964 10964 10967 10970 10972 10977 10978 10980 10981 10982 10985 10986 10987 10989 10989 10991 10992 10992 10993 10995 10996 10997 10998 10999 10998 10997 10995 10995 10994 10994 10994 10992 10991 10989
10913 10915 10916 10923 10931 10933 10936 10939 10942 10944 10945 10946 10946 10949 10953 10956 10959 10962 10963 10965 10970 10972 10974 10975 10976 10978 10980 10982 10984 10985 10986 10987 10987 10988 10989 10990 10991 10992 10992 10992 10990 10990 10989 10989 10989 10988 10988 10985 10984
10906 10908 10910 10918 10923 10927 10929 10932 10934 10935 10937 10936 10936 10939 10944 10948 10953 10955 10957 10959 10961 10965 10968 10970 10971 10973 10974 10976 10979 10981 10982 10983 10984 10985 10984 10983 10983 10985 10986 10986 10986 10984 10983 10983 10982 10981 10981 10981 10980
10898 10900 10904 10911 10916 10922 10924 10926 10926 10926 10925 10926 10927 10930 10936 10941 10944 10948 10949 10951 10953 10956 10958 10962 10963 10966 10968 10970 10972 10974 10976 10977 10978 10978 10979 10978 10978 10978 10979 10979 10980 10980 10979 10977 10976 10975 10974 10973 10971
10891 10893 10897 10905 10911 10915 10916 10916 10915 10914 10915 10916 10919 10921 10928 10930 10932 10937 10941 10944 10945 10947 10949 10951 10954 10956 10960 10961 10964 10967 10968 10969 10970 10970 10971 10972 10972 10972 10972 10971 10972 10973 10973 10971 10969 10967 10964 10963 10963
10884 10886 10889 10895 10900 10903 10905 10904 10904 10905 10906 10911 10909 10915 10917 10919 10922 10928 10931 10935 10936 10937 10939 10942 10945 10947 10949 10952 10955 10959 10959 10960 10961 10962 10962 10963 10963 10965 10964 10963 10964 10966 10965 10964 10961 10958 10955 10955 10955
10876 10880 10880 10884 10887 10890 10894 10896 10896 10897 10898 10901 10903 10905 10909 10910 10914 10918 10920 10922 10925 10927 10931 10931 10936 10938 10940 10942 10946 10949 10950 10950 10951 10954 10955 10954 10955 10956 10955 10955 10956 10956 10955 10955 10953 10950 10945 10943 10943
10868 10872 10872 10874 10875 10880 10885 10889 10889 10888 10889 10891 10892 10898 10901 10902 10905 10907 10909 10911 10914 10917 10920 10922 10924 10927 10930 10932 10935 10937 10937 10937 10940 10942 10943 10944 10945 10946 10946 10946 10946 10945 10945 10944 10944 10942 10938 10932 10931
10859 10861 10863 10864 10865 10868 10874 10877 10879 10880 10879 10881 10883 10886 10888 10888 10895 10895 10897 10900 10902 10905 10907 10909 10912 10915 10918 10920 10923 10925 10924 10927 10929 10929 10931 10932 10933 10934 10936 10935 10935 10934 10935 10934 10934 10933 10930 10924 10921
10848 10850 10852 10854 10855 10858 10863 10867 10867 10870 10871 10871 10873 10873 10874 10879 10881 10883 10885 10888 10891 10893 10896 10897 10899 10901 10904 10908 10911 10912 10911 10913 10915 10917 10918 10920 10922 10922 10925 10925 10925 10924 10923 10923 10924 10924 10920 10916 10913
10837 10839 10840 10843 10847 10849 10852 10853 10854 10856 10857 10859 10860 10862 10862 10865 10868 10871 10873 10875 10878 10881 10884 10886 10888 10889 10890 10893 10897 10899 10900 10901 10904 10906 10907 10909 10909 10911 10913 10914 10914 10912 10911 10910 10912 10911 10910 10908 10904
10829 10827 10828 10831 10835 10838 10837 10836 10838 10845 10849 10848 10848 10849 10847 10850 10855 10859 10859 10862 10866 10869 10872 10874 10876 10877 10878 10880 10882 10885 10887 10889 10891 10893 10894 10895 10897 10899 10901 10901 10901 10900 10899 10898 10898 10898 10898 10896 10895
10817 10816 10814 10817 10821 10822 10823 10821 10822 10830 10835 10837 10836 10839 10839 10838 10839 10844 10849 10851 10855 10856 10858 10860 10861 10863 10865 10866 10868 10871 10874 10875 10878 10879 10879 10883 10886 10888 10889 10889 10889 10888 10887 10886 10887 10887 10887 10887 10884
10806 10805 10802 10802 10806 10807 10809 10808 10809 10813 10821 10824 10827 10831 10830 10827 10828 10832 10833 10836 10839 10841 10842 10843 10846 10847 10849 10853 10855 10857 10859 10861 10863 10864 10865 10870 10872 10873 10874 10875 10875 10875 10875 10874 10876 10876 10877 10875 10874
10792 10792 10789 10786 10791 10793 10794 10791 10795 10798 10801 10808 10813 10816 10815 10817 10820 10822 10821 10820 10824 10827 10826 10829 10831 10831 10832 10835 10837 10840 10840 10845 10847 10850 10851 10855 10856 10857 10859 10860 10861 10862 10862 10862 10865 10865 10865 10864 10863
10779 10779 10776 10773 10775 10777 10777 10775 10779 10782 10782 10789 10796 10801 10800 10801 10804 10808 10812 10811 10810 10811 10812 10814 10816 10817 10817 10819 10823 10823 10826 10826 10830 10836 10838 10840 10842 10843 10844 10846 10847 10849 10849 10850 10852 10852 10853 10850 10848
10765 10764 10763 10760 10759 10762 10760 10757 10762 10766 10767 10770 10776 10783 10786 10785 10788 10792 10797 10798 10798 10796 10796 10797 10799 10802 10805 10807 10810 10812 10812 10814 10816 10821 10825 10826 10830 10829 10830 10832 10835 10836 10836 10837 10838 10838 10841 10838 10834
10750 10749 10749 10748 10746 10746 10745 10742 10746 10749 10752 10752 10753 10759 10766 10769 10773 10777 10782 10784 10783 10782 10782 10781 10782 10786 10791 10794 10796 10799 10802 10802 10804 10807 10811 10812 10815 10815 10816 10817 10820 10821 10822 10822 10823 10824 10825 10825 10823
10736 10734 10735 10734 10733 10731 10731 10729 10731 10733 10735 10734 10735 10742 10748 10753 10757 10758 10762 10765 10765 10766 10766 10766 10769 10773 10776 10779 10782 10783 10786 10786 10789 10793 10795 10795 10798 10802 10803 10805 10805 10806 10806 10807 10809 10810 10810 10811 10810
10723 10720 10719 10720 10720 10722 10715 10711 10716 10718 10717 10716 10721 10728 10732 10733 10734 10736 10738 10741 10743 10746 10749 10752 10754 10756 10760 10762 10765 10769 10771 10772 10774 10776 10778 10778 10778 10783 10787 10789 10790 10791 10791 10792 10793 10795 10795 10795 10794
10708 10707 10706 10706 10705 10705 10698 10697 10701 10704 10704 10705 10706 10709 10712 10715 10716 10718 10718 10719 10721 10726 10729 10732 10737 10737 10739 10743 10746 10748 10751 10756 10760 10763 10763 10764 10763 10764 10771 10774 10775 10775 10775 10775 10776 10778 10779 10780 10780
10692 10691 10692 10692 10692 10688 10686 10687 10690 10688 10688 10689 10690 10693 10695 10696 10697 10698 10699 10700 10701 10703 10706 10712 10712 10716 10719 10722 10724 10728 10732 10738 10742 10745 10745 10747 10749 10749 10752 10754 10756 10757 10758 10758 10759 10761 10763 10763 10765
10674 10674 10675 10676 10677 10675 10672 10674 10673 10670 10669 10670 10672 10676 10676 10678 10679 10679 10680 10681 10683 10684 10686 10690 10694 10697 10701 10703 10707 10711 10714 10720 10722 10727 10728 10731 10730 10727 10728 10733 10736 10740 10740 10741 10744 10746 10748 10748 10749
10653 10655 10656 10658 10660 10660 10658 10655 10653 10649 10647 10650 10652 10655 10657 10658 10660 10662 10664 10666 10666 10667 10670 10672 10674 10677 10681 10684 10686 10689 10694 10699 10703 10705 10704 10709 10710 10711 10711 10712 10716 10720 10723 10724 10725 10730 10731 10731 10733
10631 10634 10635 10637 10641 10643 10642 10638 10631 10628 10623 10627 10632 10635 10637 10639 10642 10645 10646 10647 10647 10649 10651 10652 10654 10655 10659 10662 10665 10668 10671 10677 10680 10684 10686 10688 10689 10692 10694 10696 10697 10701 10703 10707 10709 10710 10712 10714 10717
10608 10611 10614 10616 10623 10624 10625 10623 10616 10611 10606 10607 10612 10617 10621 10624 10626 10628 10628 10629 10629 10630 10631 10633 10634 10636 10638 10641 10645 10648 10649 10653 10658 10661 10666 10668 10669 10672 10677 10680 10681 10683 10685 10690 10694 10696 10696 10698 10702